loading
|

THOR ABLESTAR DEB, 407

Orbit data source: Space-Track

THOR ABLESTAR DEB, 407 is space debris in LEO originally from a launch on Thu, 29 Jun 1961 UTC launched from the Air Force Eastern Test Range (AFETR). Debris objects in space refer to the collection of defunct objects orbiting the Earth. Examples of debris include non-operational satellites, rocket bodies, and fragments generated from explosions, collisions, or faulty payload assembly.

Loading next visibility...
Loading greatness...
THOR ABLESTAR DEB details
Identifier
407, 1961-015EG
Orbit
LEO
Last TLE update11 hours ago
Origin
Flag of USUSAF SSD (US)
ManufacturerUnknown
Mission statusUnknown
MissionUnknown
Bus & MotorUnknown
MassUnknown
Launch date (UTC)
1961-06-29 (63 years ago)
Launch vehicleUnknown
Launch site
Air Force Eastern Test Range (AFETR)
Object type
Payload
Rocket body
Debris
Radar Cross SectionMedium (>0.1 m² and <1 m²)

Expand to show TLE details & history

TLE from 11 hours ago
0 THOR ABLESTAR DEB
1 00407U 61015EG  24258.84488841  .00056422  00000-0  81282-2 0  9992
2 00407  66.3178 163.6970 0047638 336.3738  89.2668 14.75189061236852
Epoch: 2024-09-14T20:16Z
Definitive object data (Epoch: 2024-09-14T20:16:38.358Z)
Latitude57.03293°
Longitude-92.49336°
Altitude652.961 km
Speed7.537 km/s
True Right ascension13h 43m 51s
True Declination56° 52' 24"
Sunlit
Object was in daylight at TLE epoch
Predictive object data (real-time)
Latitude-15.14845°
Longitude-142.85256°
Altitude616.535 km
Speed7.568 km/s
Apparent Right ascension11h 01m 46s
Apparent Declination-27° 17' 10"
Sunlit
Object is in daylight
Predictive observer data (real-time)
Local Sidereal Time23:56:16
Azimuth45.942° ENE
Elevation-73.061°
Doppler factor1
Orbital elements
Apogee676.385 km
Perigee609.491 km
Semi-major axis7,021.075 km
Eccentricity0.0047638
Inclination66.3178°
RAAN163.697°
Arg. of periapsis336.3738°
True anomaly89.81268°
Mean anomaly89.2668°
Eccentric anomaly89.53974°
Mean motion3.68925 °/min
BSTAR0.0081282
Period97.58 mins
No data available

THOR ABLESTAR DEB Visibility forecast

Observer location: 39.9160978°, -105.1181434

THOR ABLESTAR DEB is not visible in the next 10 days
Span
Click to sort rows by Start time (UTC) header in descending order
Start Az.
Max El. time (UTC)
Max El. Az.
Max El.
End time (UTC)
End Az.